Location: ?? ????
(35.9786°N, 43.5136°E)
Time: 02:20:44
(UTC+00:00)

Daily predictions for brighter satellites

Satellite Brightness Start Highest point End
(mag) Time Altitude Azimuth Time Altitude Azimuth Time Altitude Azimuth
CZ-2C R/B 4.4 00:13:43 10° NE 00:18:04 27° E 00:21:14 15° SE
MSX 4.0 00:14:09 10° NNE 00:19:49 66° E 00:19:49 66° E
Cosmos 1605 Rocket 4.1 00:20:57 10° N 00:27:23 78° E 00:30:03 38° SSE
Meteor 1-5 Rocket 4.3 00:25:43 10° N 00:31:04 67° E 00:32:29 48° SE
Meteor 1-10 Rocket 4.2 00:31:15 83° NE 00:31:15 83° NE 00:36:59 10° N
Cosmos 841 Rocket 4.3 00:36:11 37° SSE 00:37:42 47° ESE 00:42:43 10° NNE
H-2A R/B 3.1 00:36:57 10° SE 00:41:07 46° ENE 00:45:23 10° N
Cosmos 1763 Rocket 3.6 00:44:19 63° NNW 00:44:19 63° NNW 00:48:57 10° NNE
IRIDIUM 103 4.4 00:40:39 10° N 00:45:53 77° E 00:47:58 37° SSE
USA 267 3.8 00:39:55 10° NNE 00:45:55 40° NW 00:46:47 38° NW
ARIANE 5 R/B 4.2 00:43:09 10° N 00:45:10 21° NNW 00:45:10 21° NNW
ADEOS Rocket 4.4 00:44:38 10° SE 00:50:54 41° ENE 00:56:35 10° N
ERS-2 4.2 00:48:17 10° SE 00:51:25 27° ENE 00:54:33 10° NNE
SL-4 R/B 3.5 00:52:24 32° NNW 00:52:24 32° NNW 00:56:02 10° NE
X-37B 2.6 00:55:13 28° NE 00:55:13 28° NE 00:57:18 10° E
Cosmos 1727 Rocket 3.9 00:57:22 37° SSW 01:00:01 73° W 01:06:22 10° N
Cosmos 540 Rocket 3.4 01:00:50 43° S 01:02:36 84° ESE 01:07:47 10° NNE
BREEZE M DEB (TANK) 3.7 00:50:24 10° NW 01:03:20 71° NNE 01:07:12 10° ESE
IRIDIUM 106 4.2 00:58:59 10° N 01:04:11 70° W 01:06:21 35° SSW
ATLAS 2AS CENTAUR R/B 3.9 00:59:18 10° NNW 01:06:16 42° NE 01:12:39 10° ESE
Cosmos 2360 Rocket 2.2 01:05:47 31° SSW 01:08:39 85° ESE 01:14:21 10° NNE
IDEFIX/ARIANE 42P 3.8 01:07:13 10° NNW 01:10:25 25° NW 01:10:25 25° NW
Cosmos 990 Rocket 3.8 01:07:40 10° NNW 01:12:50 67° WSW 01:18:00 10° S
Cosmos 1570 Rocket 3.9 01:10:44 35° SSW 01:13:00 80° WNW 01:18:22 10° NNE
PAYLOAD A 3.7 01:08:49 10° N 01:13:30 72° WNW 01:15:13 38° SSW
Cosmos 1459 Rocket 4.3 01:07:44 10° N 01:13:45 63° E 01:19:43 10° SSE
CZ-4B R/B 3.7 01:11:22 10° SE 01:13:59 24° ENE 01:16:40 10° NNE
Celestis-02/Orion 38 4.5 01:11:08 10° SSE 01:16:23 68° WSW 01:21:33 10° NNW
USA 234 3.8 01:11:21 10° ESE 01:17:43 58° NE 01:24:05 10° NW
Cosmos 44 Rocket 3.6 01:24:48 39° W 01:25:43 45° WNW 01:30:21 10° NNE
deb Chang Zheng 4 4.0 01:22:28 10° NNE 01:26:43 62° ESE 01:30:54 10° S
Cosmos 2263 Rocket 2.7 01:22:25 10° NW 01:27:29 34° WSW 01:32:33 10° SSW
Meteor 1-11 Rocket 3.7 01:22:00 10° NNW 01:27:36 58° W 01:33:04 10° S
Cosmos 2322 Rocket 2.9 01:26:32 31° W 01:27:42 34° WNW 01:32:52 10° N
Meteor 1-27 Rocket 4.1 01:27:37 23° SW 01:31:03 47° WNW 01:36:44 10° N
Cosmos 1844 Rocket 3.7 01:26:55 10° N 01:32:23 48° ENE 01:37:49 10° SE
Cosmos 1484 Rocket 3.4 01:31:15 10° NNE 01:35:13 60° E 01:39:10 10° S
Okean 1 3.9 01:32:14 10° S 01:36:12 61° E 01:40:12 10° NNE
Cosmos 1707 Rocket 4.4 01:37:27 28° WNW 01:37:27 28° WNW 01:41:07 10° NNW
SL-16 R/B 3.4 01:38:10 22° WNW 01:39:12 23° WNW 01:43:38 10° N
Hubble Space Telescope 3.3 01:40:27 10° S 01:41:42 11° SSE 01:42:57 10° SE
Cosmos 1666 4.1 01:41:39 10° NNW 01:43:30 21° WNW 01:43:30 21° WNW
SJ-6F 4.3 01:41:27 10° N 01:45:30 64° WNW 01:49:31 10° SSW
Cosmos 1437 Rocket 2.5 01:43:43 10° SSW 01:47:29 73° W 01:51:18 10° N
Meteor 1-31 Rocket 3.1 01:43:53 10° NNE 01:47:42 69° E 01:51:33 10° S
Cosmos 2173 Rocket 4.0 01:43:55 10° NNW 01:50:11 63° W 01:56:27 10° S
Cosmos 372 Rocket 4.0 01:46:14 10° NNW 01:51:22 81° ENE 01:56:28 10° SSE
CZ-2C R/B 3.3 01:51:39 10° N 01:56:12 32° WNW 02:00:37 11° SW
Cosmos 1536 3.6 01:52:49 10° NNW 01:56:21 29° W 01:59:52 10° SSW
Cosmos 2242 Rocket 3.5 01:52:38 10° S 01:57:01 88° W 02:01:27 10° N
Cosmos 1898 Rocket 4.3 01:52:51 10° NW 01:57:14 27° W 02:01:38 10° SSW
Cosmos 2219 Rocket 2.4 01:51:40 10° SSW 01:57:18 77° ESE 02:02:59 10° NNE
Cosmos 1733 Rocket 3.3 01:53:23 10° NNW 01:57:29 43° W 02:01:33 10° SSW
CZ-4B R/B 3.6 01:55:28 10° NNE 01:58:58 48° E 02:02:25 10° S
Meteor 2-20 Rocket 4.4 01:54:12 10° SSW 02:00:20 74° W 02:06:28 10° N
ALOS 2.2 01:57:46 10° N 02:02:25 68° WNW 02:07:02 10° SSW
CZ-4B R/B 4.1 01:58:24 10° N 02:02:49 76° WNW 02:07:18 10° SSW
BREEZE-M DEB (TANK) 3.9 01:58:35 14° W 02:03:17 29° NNW 02:06:05 10° NE
Cosmos 2298 Rocket 4.3 02:01:47 10° NNW 02:07:06 75° ENE 02:12:22 10° SSE
Cosmos 1689 Rocket 2.7 02:06:07 10° SSE 02:09:01 58° ENE 02:11:57 10° N
COSMOS 2428 2.7 02:09:39 10° SSW 02:15:21 87° WNW 02:21:07 10° NNE
Cosmos 2237 Rocket 4.2 02:10:27 10° SSE 02:15:25 32° ESE 02:20:22 10° NE
H-2A R/B 3.8 02:15:07 10° WSW 02:17:18 14° W 02:19:30 10° WNW
Cosmos 1937 Rocket 4.5 02:14:20 10° NW 02:18:21 23° W 02:22:22 10° SSW
Cosmos 2016 Rocket 4.1 02:15:43 10° NNW 02:21:35 51° W 02:27:27 10° SSW
Cosmos 2061 Rocket 4.2 02:17:16 10° NNW 02:23:29 52° W 02:29:38 10° SSW
H-2A R/B 4.1 02:20:16 10° NNE 02:24:28 43° E 02:28:44 10° S
Cosmos 2333 Rocket 2.4 02:19:01 10° SW 02:24:39 57° WNW 02:30:21 10° NNE
ERS-2 3.7 02:22:48 10° SW 02:24:57 15° W 02:27:08 10° WNW
PKM 4.1 02:23:22 10° NW 02:26:48 78° SW 02:32:15 10° SE
USA 281 4.4 02:21:15 10° NE 02:27:31 47° ESE 02:33:46 10° S
Cosmos 1125 Rocket 3.9 02:24:49 10° NNW 02:30:06 73° ENE 02:35:19 10° SSE
Cosmos 2322 4.3 02:25:25 10° SW 02:30:39 38° WNW 02:35:55 10° N
X-37B 1.4 02:28:05 10° WNW 02:31:00 33° SW 02:33:54 10° SSE
PSLV R/B 3.9 02:27:22 10° S 02:31:24 80° WSW 02:35:30 10° NNW
Cosmos 2233 Rocket 4.0 02:25:49 10° N 02:31:58 85° W 02:38:06 10° S
Cosmos 1743 3.7 02:29:16 10° NNW 02:32:28 26° W 02:35:40 10° SSW
NOSS 3-4 (A) 4.2 02:26:33 10° NW 02:33:31 48° WSW 02:41:05 10° S
NOSS 3-4 (C) 4.2 02:26:39 10° NW 02:33:38 49° WSW 02:41:13 10° S
Cosmos 2150 Rocket 4.1 02:29:45 10° NNW 02:35:09 65° WSW 02:40:26 10° S
ADEOS Rocket 3.9 02:30:35 10° SSW 02:36:23 29° W 02:41:44 10° NW
